TimeEST,TemperatureF,Dew PointF,Humidity,Sea Level PressureIn,VisibilityMPH,Wind Direction,Wind SpeedMPH,Gust SpeedMPH,PrecipitationIn,Events,Conditions,WindDirDegrees,DateUTC
12:14 AM,24.1,21.0,88,29.63,2.5,Calm,Calm,-,N/A,,Mostly Cloudy,0,2014-01-19 05:14:00
12:21 AM,24.1,21.0,88,29.63,3.0,Calm,Calm,-,N/A,,Overcast,0,2014-01-19 05:21:00
12:53 AM,23.0,19.9,88,29.68,5.0,Calm,Calm,-,N/A,,Mostly Cloudy,0,2014-01-19 05:53:00
1:53 AM,21.0,18.0,88,29.68,7.0,Calm,Calm,-,N/A,,Mostly Cloudy,0,2014-01-19 06:53:00
2:53 AM,21.0,18.0,88,29.69,8.0,Calm,Calm,-,N/A,,Overcast,0,2014-01-19 07:53:00
3:53 AM,21.0,19.0,92,29.68,6.0,Calm,Calm,-,N/A,,Overcast,0,2014-01-19 08:53:00
4:53 AM,21.9,19.0,89,29.67,7.0,Calm,Calm,-,N/A,,Overcast,0,2014-01-19 09:53:00
5:53 AM,21.0,18.0,88,29.66,8.0,Calm,Calm,-,N/A,,Overcast,0,2014-01-19 10:53:00
6:53 AM,21.0,18.0,88,29.67,6.0,Calm,Calm,-,N/A,,Overcast,0,2014-01-19 11:53:00
7:53 AM,21.9,19.9,92,29.65,7.0,Calm,Calm,-,N/A,,Overcast,0,2014-01-19 12:53:00
8:32 AM,23.0,19.9,88,29.61,1.8,Calm,Calm,-,0.00,Snow,Light Snow,0,2014-01-19 13:32:00
8:43 AM,23.0,21.0,92,29.61,3.0,Calm,Calm,-,0.00,,Overcast,0,2014-01-19 13:43:00
8:53 AM,24.1,21.0,88,29.64,6.0,Calm,Calm,-,0.00,,Overcast,0,2014-01-19 13:53:00
9:53 AM,26.1,23.0,88,29.61,2.0,Calm,Calm,-,0.00,Snow,Light Snow,0,2014-01-19 14:53:00
9:57 AM,26.1,23.0,88,29.58,1.2,Calm,Calm,-,0.00,Snow,Light Snow,0,2014-01-19 14:57:00
10:04 AM,26.1,23.0,88,29.58,1.5,Calm,Calm,-,0.00,Snow,Light Snow,0,2014-01-19 15:04:00
10:15 AM,26.1,24.1,92,29.57,2.5,Calm,Calm,-,0.00,Snow,Light Snow,0,2014-01-19 15:15:00
10:28 AM,26.1,24.1,92,29.56,1.8,Calm,Calm,-,0.00,Snow,Light Snow,0,2014-01-19 15:28:00
10:33 AM,27.0,24.1,89,29.56,0.8,Calm,Calm,-,0.00,Snow,Light Snow,0,2014-01-19 15:33:00
10:53 AM,27.0,25.0,92,29.57,0.8,Calm,Calm,-,0.01,Snow,Light Snow,0,2014-01-19 15:53:00
11:53 AM,28.9,26.1,89,29.50,0.5,ESE,3.5,-,0.02,Fog-Snow,Snow,120,2014-01-19 16:53:00
12:11 PM,28.9,27.0,92,29.45,0.8,ESE,3.5,-,0.01,Snow,Light Snow,110,2014-01-19 17:11:00
12:53 PM,28.9,27.0,92,29.44,0.8,East,3.5,-,0.02,Snow,Light Snow,80,2014-01-19 17:53:00
1:19 PM,30.0,27.0,88,29.39,0.8,ENE,3.5,-,0.01,Snow,Light Snow,70,2014-01-19 18:19:00
1:26 PM,30.0,27.0,88,29.38,1.0,Calm,Calm,-,0.01,Snow,Light Snow,0,2014-01-19 18:26:00
1:34 PM,28.9,27.0,92,29.38,0.8,Calm,Calm,-,0.01,Snow,Light Snow,0,2014-01-19 18:34:00
1:41 PM,28.9,27.0,92,29.37,0.5,Calm,Calm,-,0.01,Fog-Snow,Snow,0,2014-01-19 18:41:00
1:53 PM,28.9,27.0,92,29.40,0.2,East,3.5,-,0.03,Fog-Snow,Heavy Snow,80,2014-01-19 18:53:00
2:22 PM,30.0,28.0,92,29.35,0.5,ESE,3.5,-,0.02,Fog-Snow,Snow,120,2014-01-19 19:22:00
2:35 PM,28.9,27.0,92,29.34,0.8,ESE,4.6,-,0.03,Snow,Light Snow,120,2014-01-19 19:35:00
2:42 PM,30.0,27.0,88,29.34,1.2,ESE,3.5,-,0.03,Snow,Light Snow,120,2014-01-19 19:42:00
2:49 PM,30.2,26.6,86,29.33,1.5,SE,3.5,-,0.03,Snow,Light Snow,130,2014-01-19 19:49:00
2:53 PM,30.0,27.0,88,29.37,1.8,SSE,3.5,-,0.03,Snow,Light Snow,150,2014-01-19 19:53:00
3:03 PM,30.0,27.0,88,29.33,2.5,SSE,3.5,-,0.00,Snow,Light Snow,150,2014-01-19 20:03:00
3:15 PM,28.9,27.0,92,29.33,4.0,SSE,3.5,-,0.00,Snow,Light Snow,150,2014-01-19 20:15:00
3:45 PM,30.0,27.0,88,29.32,3.0,Calm,Calm,-,0.00,Snow,Light Snow,0,2014-01-19 20:45:00
3:53 PM,30.0,27.0,88,29.35,2.5,Calm,Calm,-,0.00,Snow,Light Snow,0,2014-01-19 20:53:00
4:02 PM,28.9,27.0,92,29.31,3.0,Calm,Calm,-,0.00,Snow,Light Snow,0,2014-01-19 21:02:00
4:11 PM,28.9,27.0,92,29.31,2.5,South,3.5,-,0.00,Snow,Light Snow,170,2014-01-19 21:11:00
4:21 PM,28.9,27.0,92,29.31,4.0,Calm,Calm,-,0.00,Snow,Light Snow,0,2014-01-19 21:21:00
4:49 PM,28.4,26.6,93,29.31,7.0,Variable,3.5,-,0.00,,Overcast,0,2014-01-19 21:49:00
4:53 PM,28.9,26.1,89,29.34,8.0,Calm,Calm,-,0.00,,Overcast,0,2014-01-19 21:53:00
5:23 PM,28.0,25.0,88,29.29,10.0,Calm,Calm,-,N/A,,Mostly Cloudy,0,2014-01-19 22:23:00
5:31 PM,28.0,25.0,88,29.29,10.0,Variable,4.6,-,N/A,,Mostly Cloudy,0,2014-01-19 22:31:00
5:53 PM,28.9,26.1,89,29.32,10.0,Variable,3.5,-,N/A,,Mostly Cloudy,0,2014-01-19 22:53:00
6:53 PM,30.0,26.1,85,29.32,10.0,Variable,3.5,-,N/A,,Overcast,0,2014-01-19 23:53:00
7:07 PM,30.0,26.1,85,29.30,2.5,West,5.8,-,0.00,Snow,Light Snow,280,2014-01-20 00:07:00
7:30 PM,28.9,25.0,85,29.30,6.0,West,6.9,-,0.00,Snow,Light Snow,270,2014-01-20 00:30:00
7:51 PM,28.4,24.8,86,29.31,9.0,West,5.8,-,0.00,,Overcast,270,2014-01-20 00:51:00
7:53 PM,28.9,24.1,82,29.35,9.0,West,4.6,-,0.00,,Overcast,260,2014-01-20 00:53:00
8:53 PM,28.0,19.9,72,29.37,10.0,WSW,6.9,-,N/A,,Mostly Cloudy,250,2014-01-20 01:53:00
9:53 PM,25.0,19.0,78,29.37,10.0,Variable,3.5,-,N/A,,Partly Cloudy,0,2014-01-20 02:53:00
10:53 PM,24.1,17.1,75,29.38,10.0,Variable,4.6,-,N/A,,Partly Cloudy,0,2014-01-20 03:53:00
11:53 PM,25.0,18.0,75,29.37,10.0,SSW,9.2,-,N/A,,Overcast,200,2014-01-20 04:53:00